Seattle, WA
on Sunday, December 2, 2012

Sunday
Previous Day Next Day
Daily Summary
 ActualAverageRecord
Temperature
Mean Temperature °F 42°F  
Max Temperature 47°F 47°F 57°F (1958)
Min Temperature 45°F 37°F 25°F (1985)
Degree Days
Heating Degree Days 19 23  
Month to date heating degree days 32 46  
Since 1 July heating degree days 1059 1229  
Cooling Degree Days 0 0  
Month to date cooling degree days 0 0  
Year to date cooling degree days 177 189  
Moisture
Dew Point 41°F   
Average Humidity 84    
Maximum Humidity 92    
Minimum Humidity 76    
Precipitation
Precipitation 0.77 in 0.20 in 1.75 in (1975)
Month to date precipitation 0.93 0.40  
Year to date precipitation 42.34 32.54  
Snow
Snow 0.00 in in 1.70 in (1985)
Month to date snowfall 0.0  
Since 1 July snowfall 0.0  
Snow Depth 0.00 in   
Wind
Wind Speed 14 mph   
Max Wind Speed 26 mph   
Max Gust Speed 36 mph   
Visibility 9 miles   
Events Rain   

Key: T is trace of precipitation, MM is missing value
Source: NWS Daily Summary
Time(PST)TemperatureDew PointHumidity Pressure Visibility Wind DirectionWind SpeedGust SpeedPrecipitationEvents Conditions
12:53 AM 46.0°F 39.9°F 79% 29.25 in 10.0 miles ESE 10.4 mph - 0.02 in Rain Light Rain
1:53 AM 46.0°F 41.0°F 83% 29.25 in 5.0 miles SSE 5.8 mph - 0.10 in Rain Rain
2:53 AM 45.0°F 42.1°F 90% 29.26 in 6.0 miles SSW 3.5 mph - 0.07 in Rain Light Rain
3:27 AM 44.6°F 42.8°F 93% 29.23 in 4.0 miles SE 4.6 mph - 0.07 in Rain Rain
3:48 AM 46.4°F 41.0°F 81% 29.19 in 10.0 miles ESE 10.4 mph - 0.09 in Rain Light Rain
3:53 AM 46.0°F 41.0°F 83% 29.20 in 10.0 miles ESE 10.4 mph - 0.09 in Rain Light Rain
4:53 AM 45.0°F 42.1°F 90% 29.22 in 10.0 miles South 5.8 mph - 0.00 in   Overcast
5:53 AM 46.0°F 42.1°F 86% 29.26 in 10.0 miles South 13.8 mph - 0.02 in Rain Light Rain
6:53 AM 46.0°F 41.0°F 83% 29.30 in 10.0 miles SSW 15.0 mph 24.2 mph 0.01 in   Mostly Cloudy
7:53 AM 46.0°F 41.0°F 83% 29.37 in 10.0 miles South 13.8 mph 24.2 mph N/A   Mostly Cloudy
8:53 AM 46.9°F 41.0°F 80% 29.41 in 10.0 miles South 18.4 mph 26.5 mph N/A   Mostly Cloudy
9:53 AM 46.9°F 39.9°F 77% 29.45 in 10.0 miles South 15.0 mph 21.9 mph N/A   Overcast
10:53 AM 46.0°F 39.9°F 79% 29.49 in 4.0 miles SSW 13.8 mph 24.2 mph 0.02 in Rain Rain
11:53 AM 45.0°F 39.0°F 80% 29.53 in 10.0 miles South 16.1 mph 26.5 mph 0.01 in Rain Light Rain
12:53 PM 46.4°F 41.0°F 81% 29.52 in 10.0 miles South 17.3 mph - N/A   Overcast
1:53 PM 46.9°F 39.0°F 74% 29.57 in 10.0 miles South 17.3 mph 26.5 mph 0.00 in Rain Light Rain
2:53 PM 45.0°F 39.9°F 82% 29.62 in 9.0 miles South 13.8 mph - 0.04 in Rain Light Rain
3:53 PM 45.0°F 41.0°F 86% 29.66 in 3.0 miles SSW 8.1 mph - 0.21 in Rain Rain
4:53 PM 45.0°F 39.9°F 82% 29.67 in 10.0 miles SSE 13.8 mph 20.7 mph 0.07 in Rain Light Rain
5:36 PM 46.4°F 41.0°F 81% 29.65 in 9.0 miles SSE 16.1 mph 23.0 mph N/A Rain Light Rain
5:53 PM 46.0°F 41.0°F 83% 29.67 in 10.0 miles South 17.3 mph 26.5 mph 0.03 in Rain Light Rain
6:53 PM 46.9°F 42.1°F 83% 29.71 in 9.0 miles South 16.1 mph 25.3 mph 0.01 in   Overcast
7:31 PM 46.4°F 42.8°F 87% 29.71 in 5.0 miles SSW 10.4 mph 23.0 mph 0.04 in Rain Rain
7:53 PM 46.9°F 42.1°F 83% 29.73 in 10.0 miles South 16.1 mph 21.9 mph 0.06 in Rain Light Rain
8:53 PM 46.9°F 43.0°F 86% 29.76 in 10.0 miles South 17.3 mph 24.2 mph 0.01 in   Overcast
9:53 PM 46.9°F 42.1°F 83% 29.78 in 10.0 miles SSW 18.4 mph 26.5 mph 0.00 in   Overcast
10:06 PM 46.4°F 42.8°F 87% 29.77 in 10.0 miles South 15.0 mph 24.2 mph N/A   Overcast
10:53 PM 46.0°F 39.9°F 79% 29.81 in 10.0 miles SSW 18.4 mph 25.3 mph N/A   Mostly Cloudy
11:53 PM 46.0°F 42.1°F 86% 29.83 in 10.0 miles South 11.5 mph - 0.00 in Rain Light Rain
Moon Phase
Dec. 02 Dec. 06 Dec. 13 Dec. 20 Dec. 28
Sunrise:07:37 AM (PST) Moon Rise:08:20 PM (PST)12/2
Sunset:04:19 PM (PST) Moon Set:10:24 AM (PST)12/2

Copyright © 2014 The Weather Underground, Inc.